Location: Unspecified
(0.0000°N, 0.0000°E)
Time: 16:49:38
(UTC+02:00)

Cosmos 2219 - Visible Passes

Search period start: 27 April 2017 00:00
Search period end: 07 May 2017 00:00
Orbit: 835 x 858 km, 71.1° (Epoch: 25 April)

Date Brightness Start Highest point End Pass type
(mag) Time Alt. Az. Time Alt. Az. Time Alt. Az.
27 Apr 5.8 20:42:38 10° WNW 20:46:40 20° WSW 20:50:46 10° SSW visible
28 Apr 5.8 20:29:05 10° WNW 20:33:12 21° WSW 20:37:23 10° SSW visible
29 Apr 3.2 07:28:59 10° SSW 07:34:42 81° WNW 07:40:21 10° NNE visible
29 Apr 5.8 20:15:31 10° WNW 20:19:44 22° WSW 20:23:59 10° SSW visible
30 Apr 3.2 07:15:31 10° SSW 07:21:14 84° WNW 07:26:53 10° NNE visible
01 May 3.2 07:02:03 10° SSW 07:07:46 87° WNW 07:13:25 10° NNE visible
02 May 3.2 06:48:34 10° SSW 06:54:18 89° WNW 06:59:57 10° NNE visible
03 May 3.2 06:35:30 12° SSW 06:40:50 88° ESE 06:46:29 10° NNE visible
04 May 3.2 06:23:43 23° SSW 06:27:21 86° ESE 06:33:01 10° NNE visible
05 May 3.2 06:11:50 42° S 06:13:53 83° ESE 06:19:32 10° NNE visible
06 May 3.2 05:59:49 70° SSE 06:00:25 81° ESE 06:06:04 10° NNE visible
